Location: Bow
(51.5261°N, 0.0167°W)
Time: 12:51:55
(UTC+00:00)

NOSS 3-4 (A) - Pass Details

Date: 18 September 2020
Orbit: 886 x 1326 km, 63.4° (Epoch: 22 October)

Event Time Altitude Azimuth Distance (km) Brightness Sun altitude
Exits shadow 22:41:29 49° 9° (N) 1,227 4.2 -34.9°
Drops below altitude 10° 22:46:39 10° 44° (NE) 2,821 6.1 -35.2°
Sets 22:49:28 0° 48° (NE) 3,843 6.9 -35.3°
